This is the latest recevied weather packets stored in our database for station/object N5LSN. If no packets are shown the sender has not sent any weather packets the latest 10 day(s).
| Time | Temp. | Humidity | Pressure | Rain* | Wind** | Luminosity | Snow |
|---|---|---|---|---|---|---|---|
| 1777640829 | 12.78° C | 83% | 1017.9 hPa | 0 mm | - | 163 W/m² | - |
| 1777640527 | 12.78° C | 83% | 1017.9 hPa | 0 mm | - | 129 W/m² | - |
| 1777640224 | 12.78° C | 83% | 1017.8 hPa | 0 mm | - | 141 W/m² | - |
| 1777639920 | 12.78° C | 83% | 1018.1 hPa | 0 mm | - | 121 W/m² | - |
| 1777639617 | 12.22° C | 84% | 1017.9 hPa | 0 mm | - | 113 W/m² | - |
| 1777639314 | 12.22° C | 85% | 1018 hPa | 0 mm | - | 97 W/m² | - |
| 1777639010 | 12.22° C | 85% | 1018 hPa | 0 mm | - | 97 W/m² | - |
| 1777638706 | 12.22° C | 84% | 1017.5 hPa | 0 mm | - | 90 W/m² | - |
| 1777638403 | 12.22° C | 85% | 1017.7 hPa | 0 mm | - | 78 W/m² | - |
| 1777638099 | 11.67° C | 85% | 1017.8 hPa | 0 mm | - | 76 W/m² | - |
| 1777637795 | 11.67° C | 85% | 1017.6 hPa | 0 mm | - | 68 W/m² | - |
| 1777637491 | 11.67° C | 84% | 1017.7 hPa | 0 mm | - | 59 W/m² | - |
| 1777637189 | 11.67° C | 84% | 1017.3 hPa | 0 mm | - | 52 W/m² | - |
| 1777636886 | 11.67° C | 84% | 1017.6 hPa | 0 mm | - | 45 W/m² | - |
| 1777636582 | 11.11° C | 88% | 1017.6 hPa | 0 mm | - | 36 W/m² | - |
| 1777636278 | 11.11° C | 88% | 1017.6 hPa | 0 mm | - | 34 W/m² | - |
| 1777635978 | 11.11° C | 87% | 1017.5 hPa | 0 mm | - | 25 W/m² | - |
| 1777635674 | 11.11° C | 86% | 1017.4 hPa | 0 mm | - | 19 W/m² | - |
| 1777635371 | 11.11° C | 85% | 1017.4 hPa | 0 mm | - | 14 W/m² | - |
| 1777635068 | 11.67° C | 84% | 1017.3 hPa | 0 mm | - | 7 W/m² | - |
| 1777634764 | 11.67° C | 83% | 1017.2 hPa | 0 mm | - | 4 W/m² | - |
| 1777634461 | 11.67° C | 83% | 1017 hPa | 0 mm | - | 2 W/m² | - |
| 1777634158 | 11.67° C | 83% | 1017.2 hPa | 0 mm | - | 1 W/m² | - |
| 1777633854 | 11.67° C | 84% | 1017.2 hPa | 0 mm | - | 0 W/m² | - |
| 1777633552 | 11.67° C | 83% | 1017.2 hPa | 0 mm | - | 0 W/m² | - |
* Rain latest hour (hover to see other rain measurements)
** Current wind speed in m/s (hover to see current wind gust speed)